[[{"header":{"parameterUnit":"m.s-1","parameterCategory":1,"la1":30.2991,"la2":30.254,"lo1":-89.0895,"lo2":-89.0444,"dy":0.0017,"dx":0.0017,"nx":28,"ny":28,"refTime":"2024-02-09T09:00:00:Z","depth":0,"parameterNumber":2,"parameterNumberName":"U-component_of_WINDS"},"data":[0,0,0,0,0,0,0,0,0,0,0,0,0,0,0,0,0,0,0,0,0,0,0,0,0,0,0,0,0,0,0,0,0,0,0,0,0,0,0,0,0,0,0,0,0,0,0,0,0,0,0,0,0,0,0,0,0,0,-3.3283,-3.3283,0,-3.3286,-3.3286,-3.3286,-3.3239,-3.3238,-3.3236,-3.3235,-3.3239,-3.324,-3.3242,0,0,0,0,0,0,0,0,0,0,0,0,0,-3.3236,-3.3237,-3.3283,-3.3283,-3.3283,-3.3286,-3.3286,-3.3286,-3.3239,-3.3238,-3.3236,-3.3235,-3.3239,-3.324,-3.3242,0,0,0,0,0,0,0,0,0,0,0,0,0,-3.325,-3.3238,-3.3283,-3.326,-3.3258,-3.3286,-3.3286,-3.3286,-3.324,-3.3238,-3.3236,-3.3234,-3.3238,-3.324,-3.3242,-3.3293,0,0,-3.3248,-3.3249,0,0,0,0,0,0,0,0,-3.3249,-3.3252,-3.3263,-3.3262,-3.3259,-3.326,-3.3271,-3.3288,-3.324,-3.3247,-3.3235,-3.3233,-3.3248,-3.3249,-3.3254,-3.3293,-3.3293,-3.3248,-3.3249,-3.325,-3.3251,0,0,0,0,0,0,0,-3.3248,-3.3251,-3.3284,-3.3264,-3.3261,-3.325,-3.3249,-3.3274,-3.3258,-3.3246,-3.3242,-3.3243,-3.3246,-3.3252,-3.3253,-3.3293,-3.3248,-3.325,-3.3251,-3.3252,-3.3373,-3.3375,0,0,0,0,0,0,-3.325,-3.3251,-3.3284,-3.3284,-3.3249,-3.3252,-3.3252,-3.3262,-3.3257,-3.3255,-3.3245,-3.3241,-3.3249,-3.3251,-3.3253,-3.3311,-3.325,-3.3252,-3.3253,-3.3371,-3.3374,-3.3376,0,0,0,0,0,0,-3.325,-3.3254,-3.3284,-3.3267,-3.327,-3.3255,-3.3267,-3.3263,-3.3268,-3.3257,-3.3254,-3.3254,-3.3248,-3.3251,-3.3283,-3.3311,-3.3253,-3.3255,-3.3369,-3.3372,-3.3375,-3.3428,0,0,0,0,0,0,-3.3248,-3.3254,-3.3273,-3.3267,-3.3271,-3.3314,-3.3268,-3.3264,-3.3272,-3.3267,-3.3264,-3.3262,-3.3247,-3.328,-3.3285,-3.3312,-3.3256,-3.3366,-3.337,-3.3374,-3.3424,-3.3433,-3.3441,0,0,0,0,0,-3.3247,-3.3288,-3.3274,-3.3278,-3.3294,-3.3315,-3.3317,-3.3299,-3.3274,-3.3293,-3.3286,-3.3262,-3.3308,-3.3284,-3.3289,-3.3317,-3.3364,-3.3369,-3.3374,-3.342,-3.3431,-3.344,0,0,0,0,0,0,-3.3297,-3.3287,-3.3271,-3.3312,-3.3315,-3.3307,-3.333,-3.3311,-3.3321,-3.3316,-3.3293,-3.3293,-3.3329,-3.3327,-3.3301,-3.3366,-3.3332,-3.3338,-3.3366,-3.3376,-3.3384,-3.3383,-3.3258,0,0,0,0,0,-3.3313,-3.3331,-3.3321,-3.3358,-3.336,-3.3345,-3.3354,-3.3339,-3.3342,-3.3343,-3.3338,-3.3341,-3.3356,-3.3366,-3.3379,-3.3424,-3.3423,-3.3446,-3.3455,-3.3462,-3.3466,-3.3489,-3.3499,-3.3391,-3.3391,-3.3391,0,0,-3.3346,-3.3342,-3.3355,-3.3368,-3.3368,-3.3387,-3.3347,-3.3369,-3.3382,-3.3346,-3.3376,-3.3373,-3.3375,-3.3414,-3.343,-3.3413,-3.3496,-3.3467,-3.3473,-3.3474,-3.3495,-3.3505,-3.3514,-3.3394,-3.3394,-3.3393,0,0,-3.3415,-3.3415,-3.3444,-3.3446,-3.3447,-3.3437,-3.3445,-3.344,-3.3436,-3.3466,-3.3439,-3.3456,-3.3482,-3.3484,-3.3489,-3.356,-3.3538,-3.3565,-3.3607,-3.363,-3.3638,-3.3645,-3.3669,-3.3678,-3.357,-3.357,-3.357,0,-3.3455,-3.3482,-3.3462,-3.3486,-3.3492,-3.346,-3.349,-3.3493,-3.3499,-3.3504,-3.3484,-3.3516,-3.3516,-3.3554,-3.3571,-3.3577,-3.3584,-3.3564,-3.3639,-3.3646,-3.3652,-3.3675,-3.3684,-3.3573,-3.3573,-3.3572,-3.3572,0,-3.3531,-3.3551,-3.3575,-3.3581,-3.359,-3.3617,-3.3601,-3.3613,-3.3598,-3.359,-3.362,-3.3619,-3.3631,-3.3639,-3.3625,-3.3676,-3.3665,-3.3643,-3.3607,-3.3666,-3.3687,-3.3695,-3.3578,-3.3577,-3.3576,-3.3575,0,0,-3.363,-3.3625,-3.3634,-3.3636,-3.3636,-3.365,-3.3676,-3.3687,-3.3697,-3.3703,-3.3723,-3.3747,-3.3726,-3.3731,-3.3718,-3.3738,-3.3792,-3.3713,-3.3713,-3.3726,-3.3847,-3.3862,-3.3872,-3.3779,-3.378,-3.3782,-3.3846,0,-3.3696,-3.3738,-3.3721,-3.3765,-3.3783,-3.3753,-3.3775,-3.3778,-3.3771,-3.3785,-3.3778,-3.3795,-3.3767,-3.377,-3.3789,-3.3782,-3.3816,-3.3777,-3.3796,-3.3797,-3.3795,-3.3883,-3.3899,-3.396,-3.3854,-3.3855,-3.3856,0,-3.3778,-3.3786,-3.3832,-3.3827,-3.3834,-3.3854,-3.3863,-3.3877,-3.3879,-3.3873,-3.3879,-3.3861,-3.3886,-3.3853,-3.3886,-3.386,-3.3867,-3.3865,-3.3867,-3.3867,-3.3829,-3.3883,-3.3979,-3.3988,-3.3869,-3.3868,-3.3867,0,-3.3844,-3.3866,-3.3896,-3.3899,-3.3896,-3.391,-3.391,-3.391,-3.3918,-3.3926,-3.393,-3.3942,-3.3948,-3.3957,-3.3942,-3.392,-3.3978,-3.3943,-3.3973,-3.3973,-3.3985,-3.3984,-3.4081,-3.3993,-3.3993,-3.3993,-3.3992,0,-3.3918,-3.3946,-3.3925,-3.3944,-3.3975,-3.3956,-3.3987,-3.3983,-3.3984,-3.4001,-3.3977,-3.3993,-3.3974,-3.3989,-3.3978,-3.4007,-3.401,-3.4005,-3.4002,-3.4006,-3.4007,-3.4009,-3.4004,-3.3995,-3.3994,-3.3994,-3.3994,0,-3.3995,-3.3983,-3.4013,-3.4008,-3.4007,-3.403,-3.4025,-3.4042,-3.4034,-3.4056,-3.406,-3.4048,-3.4064,-3.4051,-3.4067,-3.4059,-3.4097,-3.4089,-3.4096,-3.4093,-3.4122,-3.4119,-3.4223,-3.4235,-3.4141,-3.4142,-3.4143,0,-3.4043,-3.4064,-3.406,-3.407,-3.407,-3.4086,-3.4094,-3.4076,-3.4085,-3.4089,-3.4105,-3.4119,-3.4129,-3.4157,-3.4149,-3.4162,-3.4152,-3.4188,-3.4153,-3.4157,-3.415,-3.4148,-3.415,-3.4194,-3.4195,-3.4196,-3.4197,0,-3.4127,-3.412,-3.4131,-3.4141,-3.4151,-3.4158,-3.4163,-3.4172,-3.4154,-3.4166,-3.4182,-3.419,-3.4206,-3.422,-3.423,-3.4229,-3.421,-3.4208,-3.4215,-3.4219,-3.4222,-3.4219,-3.4113,-3.4205,-3.4204,-3.4204,-3.4203,-3.4203,-3.419,-3.4207,-3.4207,-3.422,-3.4222,-3.4228,-3.4243,-3.4237,-3.425,-3.4261,-3.425,-3.4269,-3.4271,-3.4282,-3.4284,-3.4299,-3.4284,-3.4295,-3.4297,-3.4299,-3.4303,-3.4221,-3.4301,-3.43,-3.43,-3.43,-3.43,0,-3.4271,-3.427,-3.4283,-3.429,-3.4301,-3.4283,-3.4287,-3.4298,-3.4315,-3.4318,-3.4328,-3.4346,-3.436,-3.4354,-3.4366,-3.4379,-3.437,-3.4382,-3.438,-3.438,-3.4316,-3.4308,-3.4389,-3.4389,-3.4389,-3.4389,-3.4389,-3.4389,-3.4315,-3.4342,-3.4335,-3.4363,-3.4362,-3.438,-3.4384,-3.4388,-3.4391,-3.4412,-3.4423,-3.4419,-3.4418,-3.443,-3.4442,-3.444,-3.4444,-3.4459,-3.4454,-3.4394,-3.4385,-3.4376,-3.4368,-3.4461,-3.4461,-3.4517,-3.4517,-3.4518]},{"header":{"parameterUnit":"m.s-1","parameterCategory":1,"la1":30.2991,"la2":30.254,"lo1":-89.0895,"lo2":-89.0444,"dy":0.0017,"dx":0.0017,"nx":28,"ny":28,"refTime":"2024-02-09T09:00:00:Z","depth":0,"parameterNumber":3,"parameterNumberName":"V-component_of_WINDS"},"data":[0,0,0,0,0,0,0,0,0,0,0,0,0,0,0,0,0,0,0,0,0,0,0,0,0,0,0,0,0,0,0,0,0,0,0,0,0,0,0,0,0,0,0,0,0,0,0,0,0,0,0,0,0,0,0,0,0,0,2.1535,2.1537,0,2.1666,2.1668,2.1669,2.1713,2.1713,2.1712,2.1711,2.1848,2.1852,2.1857,0,0,0,0,0,0,0,0,0,0,0,0,0,2.1328,2.1332,2.1535,2.1537,2.1539,2.1666,2.1668,2.167,2.1713,2.1713,2.1712,2.1711,2.1847,2.1852,2.1857,0,0,0,0,0,0,0,0,0,0,0,0,0,2.1435,2.1333,2.1535,2.1576,2.1581,2.1666,2.1668,2.167,2.1713,2.1712,2.1712,2.1711,2.1845,2.1851,2.1858,2.1913,0,0,2.1877,2.1879,0,0,0,0,0,0,0,0,2.1428,2.1442,2.1568,2.1573,2.1579,2.1673,2.1645,2.1752,2.1714,2.1663,2.1711,2.171,2.1791,2.1801,2.1828,2.1919,2.1925,2.1877,2.1881,2.1884,2.1886,0,0,0,0,0,0,0,2.1421,2.1437,2.1587,2.157,2.1576,2.1589,2.1603,2.1666,2.173,2.1667,2.1671,2.1686,2.1793,2.1822,2.1831,2.1927,2.1877,2.1883,2.1886,2.1889,2.2076,2.2077,0,0,0,0,0,0,2.1406,2.143,2.1583,2.1591,2.15,2.1593,2.1609,2.1643,2.1729,2.1742,2.1686,2.1687,2.1812,2.1824,2.1836,2.191,2.1884,2.189,2.1893,2.2074,2.2076,2.2077,0,0,0,0,0,0,2.1402,2.1419,2.1578,2.1512,2.1533,2.1598,2.1636,2.1646,2.1675,2.1744,2.1756,2.1703,2.1811,2.1828,2.1895,2.1915,2.1892,2.1898,2.2073,2.2075,2.2077,2.2056,0,0,0,0,0,0,2.1395,2.1417,2.1438,2.1512,2.1536,2.1632,2.1637,2.1649,2.1685,2.1687,2.1763,2.1774,2.1812,2.1885,2.1901,2.1924,2.1903,2.2071,2.2074,2.2076,2.2055,2.2057,2.2058,0,0,0,0,0,2.1388,2.1426,2.1438,2.1457,2.1563,2.1633,2.1647,2.1689,2.1686,2.1709,2.1754,2.1772,2.191,2.1891,2.191,2.1935,2.207,2.2073,2.2076,2.2054,2.2056,2.2058,0,0,0,0,0,0,2.1353,2.1437,2.1451,2.1514,2.1566,2.164,2.1669,2.1689,2.1744,2.1744,2.1794,2.1811,2.1875,2.1911,2.1889,2.1995,2.1992,2.1998,2.1969,2.1971,2.1973,2.1964,2.1908,0,0,0,0,0,2.1352,2.1401,2.1472,2.1521,2.1547,2.1603,2.1635,2.1663,2.172,2.1742,2.1792,2.1847,2.1903,2.1939,2.1994,2.206,2.2079,2.2087,2.2088,2.2089,2.2095,2.2136,2.2142,2.2086,2.2086,2.2086,0,0,2.1352,2.1404,2.1432,2.1516,2.1559,2.1611,2.1621,2.1675,2.1714,2.175,2.1817,2.1856,2.1921,2.1988,2.2021,2.2021,2.2114,2.2093,2.2093,2.2098,2.214,2.2145,2.215,2.2088,2.2088,2.2087,0,0,2.1378,2.1421,2.1468,2.1512,2.1578,2.1616,2.1628,2.17,2.1727,2.1795,2.1824,2.1873,2.1967,2.2014,2.2049,2.2097,2.2117,2.2114,2.2123,2.2162,2.2167,2.2171,2.2191,2.2198,2.2119,2.2119,2.2118,0,2.137,2.1447,2.149,2.1543,2.1581,2.1616,2.1666,2.1707,2.1788,2.1814,2.1813,2.1935,2.1981,2.2062,2.2074,2.2101,2.2118,2.2106,2.2162,2.2167,2.2172,2.2192,2.2199,2.2118,2.2118,2.2118,2.2118,0,2.1436,2.1489,2.152,2.1597,2.1638,2.1689,2.1742,2.1779,2.1804,2.1843,2.1914,2.1971,2.204,2.2061,2.2085,2.2146,2.2145,2.2152,2.215,2.2176,2.2196,2.2203,2.2117,2.2117,2.2117,2.2117,0,0,2.1442,2.1545,2.1556,2.1593,2.167,2.1713,2.1767,2.1835,2.1867,2.1922,2.1971,2.2052,2.2061,2.2102,2.2132,2.2167,2.2206,2.2171,2.2173,2.2178,2.2281,2.2276,2.2284,2.2219,2.222,2.2222,2.2276,0,2.148,2.1577,2.1619,2.1698,2.175,2.1786,2.1834,2.1888,2.1926,2.1978,2.2021,2.2079,2.2084,2.211,2.2145,2.2193,2.2227,2.2189,2.2268,2.227,2.2252,2.2294,2.2288,2.2337,2.2284,2.2285,2.2286,0,2.1537,2.1593,2.1677,2.1752,2.1775,2.1817,2.1885,2.1932,2.1996,2.2022,2.2069,2.2098,2.216,2.2153,2.2239,2.2213,2.2248,2.2276,2.2279,2.229,2.2281,2.2308,2.2353,2.2361,2.2298,2.2297,2.2296,0,2.1536,2.1633,2.1697,2.1728,2.1815,2.1845,2.1883,2.1945,2.1984,2.2044,2.2071,2.2136,2.2173,2.2224,2.2272,2.2261,2.2356,2.2351,2.2381,2.238,2.24,2.2399,2.2454,2.2419,2.2419,2.2418,2.2418,0,2.1575,2.1626,2.1699,2.1738,2.1798,2.1847,2.1905,2.1946,2.2002,2.2052,2.2087,2.2133,2.2192,2.2248,2.2285,2.2354,2.2369,2.2394,2.2404,2.2392,2.2389,2.2417,2.2416,2.242,2.242,2.242,2.2419,0,2.1585,2.1635,2.1708,2.1786,2.1807,2.1847,2.1915,2.1957,2.1998,2.2061,2.2079,2.2144,2.2211,2.2263,2.235,2.2376,2.2449,2.2459,2.2428,2.2433,2.2462,2.2459,2.2538,2.2553,2.2505,2.2505,2.2505,0,2.1607,2.1647,2.173,2.1766,2.1804,2.1861,2.1902,2.1953,2.1995,2.2072,2.2105,2.2174,2.2233,2.2339,2.2395,2.2463,2.2476,2.2499,2.2486,2.2475,2.248,2.2478,2.2484,2.2501,2.2501,2.2501,2.2501,0,2.1642,2.1666,2.1723,2.179,2.1838,2.1893,2.1949,2.1977,2.2039,2.2085,2.2154,2.2199,2.2289,2.2359,2.2434,2.2475,2.25,2.2505,2.2516,2.2506,2.2487,2.2501,2.2435,2.2503,2.2503,2.2503,2.2503,2.2503,2.1661,2.17,2.1765,2.1829,2.1877,2.193,2.1973,2.2021,2.2079,2.2157,2.2184,2.2256,2.2322,2.2425,2.2467,2.2526,2.2528,2.2543,2.2547,2.2551,2.2551,2.2476,2.2539,2.2539,2.2539,2.2539,2.2539,0,2.17,2.1745,2.1803,2.1881,2.1932,2.1951,2.2015,2.2057,2.212,2.2179,2.2237,2.2319,2.2388,2.245,2.2523,2.2558,2.2572,2.2576,2.2575,2.2585,2.2544,2.2528,2.2564,2.2564,2.2564,2.2564,2.2564,2.2564,2.1727,2.1795,2.1827,2.1922,2.1966,2.2037,2.2073,2.2123,2.2171,2.2261,2.2319,2.2359,2.2421,2.2499,2.2565,2.2582,2.2608,2.261,2.263,2.2591,2.2587,2.2584,2.257,2.2614,2.2614,2.2667,2.2667,2.2668]}]]